User: anonymous   Login
Location: Stillwell
(40.4602°N, 82.0928°W)
Time: 07:02:02
(UTC-04:00)
Language:

Cosmos 2333 Rocket - Orbit

View from above orbital plane
View from above orbital plane
View from above satellite
View from above satellite

Ground track
Ground track

The orbit data is extracted from the following two-line orbital elements,

1 24298U 96051B   17145.34875449 +.00000001 +00000-0 +26789-4 0  9995
2 24298 070.8498 110.2282 0018868 220.9580 139.0124 14.12497073068334
Epoch (UTC): 25 May 2017 08:22:12
Eccentricity: 0.0018868
inclination: 70.8498°
perigee height: 837 km
apogee height: 864 km
right ascension of ascending node: 110.2282°
argument of perigee: 220.9580°
revolutions per day: 14.12497073
mean anomaly at epoch: 139.0124°
orbit number at epoch: 6833

The dashed part of the orbit path shows where the satellite is in the earth's shadow,  

DLR